QPF
0.00 0.00 0.00 0.01 0.03 0.04 0.10 0.10 0.04 0.05 0.00 0.00 0.00 0.00 0.01 0.04 0.08 0.09 0.00 0.00 0.00 0.00 0.00 0.00 0.01 0.00 0.00 0.00 0.00 0.00 0.00 0.00 0.00 0.00 0.00 0.00 0.00 0.00 0.00 0.03 0.03 0.00 0.02 0.01 0.00 0.01 0.12 0.06 0.02
0.00 0.00 0.00 0.09 0.08 0.08 0.15 0.02 0.08 0.04 0.01 0.00 0.00 0.00 0.01 0.00 0.00 0.00 0.00 0.00 0.00 0.00 0.00 0.00 0.01 0.02 0.00 0.00 0.01 0.03 0.00 0.00 0.00 0.00 0.00 0.00 0.00 0.00 0.00 0.00 0.08 0.06 0.00 0.00 0.00 0.00 0.01 0.01 0.02
0.00 0.01 0.05 0.02 0.03 0.11 0.20 0.05 0.04 0.01 0.00 0.00 0.00 0.00 0.00 0.01 0.00 0.00 0.00 0.00 0.00 0.00 0.00 0.00 0.00 0.01 0.00 0.01 0.01 0.04 0.02 0.01 0.00 0.00 0.00 0.00 0.01 0.00 0.00 0.00 0.01 0.01 0.00 0.00 0.00 0.00 0.01 0.00 0.00
0.00 0.03 0.05 0.05 0.03 0.05 0.07 0.14 0.06 0.00 0.00 0.00 0.00 0.02 0.00 0.00 0.00 0.00 0.00 0.00 0.00 0.00 0.00 0.00 0.00 0.02 0.02 0.01 0.01 0.01 0.00 0.00 0.00 0.00 0.00 0.00 0.00 0.00 0.00 0.00 0.00 0.00 0.00 0.00 0.00 0.00 0.01 0.00 0.00
0.00 0.09 0.09 0.09 0.09 0.03 0.03 0.07 0.06 0.03 0.00 0.02 0.03 0.01 0.00 0.00 0.00 0.00 0.00 0.00 0.00 0.00 0.00 0.00 0.01 0.01 0.00 0.01 0.01 0.00 0.00 0.00 0.00 0.00 0.00 0.00 0.01 0.01 0.01 0.00 0.00 0.00 0.00 0.01 0.03 0.02 0.00 0.00 0.00
0.04 0.08 0.10 0.11 0.08 0.08 0.01 0.01 0.04 0.03 0.00 0.01 0.01 0.00 0.00 0.00 0.00 0.00 0.00 0.00 0.00 0.00 0.00 0.00 0.00 0.01 0.01 0.01 0.00 0.00 0.00 0.00 0.00 0.00 0.00 0.00 0.01 0.00 0.00 0.00 0.00 0.00 0.00 0.02 0.02 0.00 0.00 0.00 0.01
0.06 0.11 0.07 0.07 0.04 0.07 0.00 0.01 0.05 0.02 0.01 0.00 0.01 0.04 0.01 0.00 0.00 0.00 0.00 0.00 0.00 0.00 0.00 0.00 0.00 0.01 0.00 0.02 0.01 0.00 0.00 0.00 0.00 0.00 0.01 0.02 0.00 0.00 0.00 0.00 0.00 0.00 0.00 0.00 0.03 0.01 0.00 0.00 0.00
0.06 0.05 0.02 0.04 0.06 0.12 0.00 0.00 0.04 0.08 0.03 0.01 0.01 0.04 0.00 0.00 0.00 0.00 0.00 0.00 0.00 0.00 0.00 0.00 0.00 0.00 0.00 0.01 0.02 0.02 0.00 0.00 0.00 0.00 0.00 0.00 0.00 0.00 0.00 0.00 0.00 0.00 0.00 0.00 0.01 0.01 0.00 0.00 0.01
0.01 0.02 0.02 0.07 0.03 0.06 0.00 0.00 0.01 0.04 0.00 0.00 0.00 0.01 0.00 0.00 0.00 0.00 0.00 0.00 0.00 0.00 0.00 0.00 0.00 0.00 0.00 0.00 0.03 0.03 0.01 0.00 0.00 0.00 0.02 0.02 0.00 0.00 0.00 0.00 0.00 0.00 0.00 0.00 0.00 0.00 0.00 0.00 0.00
0.02 0.04 0.05 0.01 0.01 0.00 0.00 0.00 0.00 0.00 0.00 0.00 0.00 0.00 0.00 0.00 0.00 0.00 0.00 0.00 0.00 0.00 0.00 0.00 0.00 0.00 0.00 0.00 0.00 0.00 0.00 0.00 0.00 0.00 0.00 0.01 0.00 0.00 0.00 0.00 0.00 0.00 0.00 0.00 0.00 0.00 0.00 0.00 0.00
0.00 0.00 0.01 0.01 0.00 0.00 0.02 0.11 0.03 0.02 0.01 0.00 0.00 0.00 0.00 0.00 0.00 0.00 0.00 0.00 0.00 0.00 0.00 0.00 0.00 0.00 0.00 0.00 0.00 0.00 0.00 0.00 0.00 0.00 0.00 0.00 0.00 0.00 0.00 0.00 0.01 0.00 0.01 0.00 0.00 0.02 0.00 0.01 0.00
0.00 0.00 0.02 0.02 0.00 0.00 0.01 0.04 0.02 0.01 0.06 0.01 0.00 0.00 0.00 0.00 0.00 0.00 0.00 0.00 0.00 0.00 0.00 0.00 0.00 0.00 0.00 0.00 0.00 0.00 0.00 0.00 0.00 0.00 0.00 0.00 0.00 0.00 0.01 0.01 0.00 0.01 0.01 0.00 0.02 0.06 0.00 0.00 0.02
0.00 0.01 0.01 0.00 0.02 0.04 0.01 0.00 0.09 0.02 0.02 0.00 0.00 0.00 0.00 0.00 0.00 0.00 0.00 0.00 0.00 0.00 0.00 0.00 0.00 0.00 0.00 0.00 0.00 0.00 0.00 0.00 0.00 0.00 0.00 0.00 0.00 0.00 0.00 0.00 0.02 0.01 0.01 0.00 0.01 0.00 0.00 0.00 0.00
0.00 0.00 0.03 0.00 0.00 0.00 0.00 0.01 0.00 0.00 0.00 0.00 0.00 0.00 0.00 0.00 0.00 0.00 0.00 0.00 0.00 0.00 0.00 0.00 0.00 0.00 0.00 0.00 0.00 0.00 0.00 0.00 0.00 0.00 0.00 0.00 0.00 0.01 0.01 0.00 0.00 0.00 0.00 0.00 0.00 0.00 0.00 0.00 0.00
0.00 0.00 0.00 0.00 0.00 0.00 0.00 0.00 0.00 0.01 0.00 0.00 0.00 0.00 0.00 0.00 0.00 0.00 0.00 0.00 0.00 0.00 0.00 0.00 0.00 0.00 0.00 0.00 0.00 0.00 0.00 0.00 0.00 0.00 0.00 0.00 0.00 0.01 0.05 0.01 0.00 0.00 0.00 0.00 0.00 0.00 0.00 0.00 0.00
0.00 0.00 0.00 0.00 0.00 0.00 0.00 0.00 0.00 0.00 0.00 0.00 0.00 0.00 0.00 0.00 0.00 0.00 0.00 0.00 0.00 0.00 0.00 0.00 0.00 0.00 0.00 0.00 0.00 0.00 0.00 0.00 0.00 0.00 0.00 0.00 0.02 0.05 0.03 0.01 0.01 0.00 0.00 0.00 0.00 0.00 0.00 0.00 0.00
0.00 0.00 0.00 0.01 0.00 0.00 0.00 0.11 0.07 0.00 0.00 0.00 0.00 0.00 0.00 0.00 0.00 0.00 0.00 0.00 0.00 0.00 0.00 0.00 0.00 0.00 0.00 0.00 0.00 0.00 0.00 0.00 0.00 0.00 0.00 0.00 0.03 0.02 0.00 0.00 0.02 0.00 0.00 0.00 0.00 0.00 0.00 0.00 0.00
0.00 0.00 0.00 0.00 0.00 0.00 0.00 0.06 0.22 0.00 0.00 0.00 0.00 0.00 0.00 0.00 0.00 0.00 0.00 0.00 0.00 0.00 0.00 0.00 0.00 0.00 0.00 0.00 0.00 0.00 0.00 0.00 0.00 0.00 0.00 0.00 0.03 0.03 0.00 0.00 0.00 0.00 0.00 0.00 0.00 0.00 0.00 0.00 0.00
0.00 0.00 0.00 0.00 0.01 0.01 0.01 0.02 0.16 0.00 0.00 0.00 0.00 0.00 0.00 0.00 0.00 0.00 0.00 0.00 0.00 0.00 0.00 0.00 0.00 0.00 0.00 0.00 0.00 0.00 0.00 0.00 0.00 0.00 0.00 0.00 0.00 0.02 0.00 0.01 0.00 0.00 0.01 0.03 0.00 0.00 0.00 0.00 0.00
0.00 0.00 0.00 0.00 0.00 0.00 0.02 0.01 0.00 0.00 0.00 0.00 0.00 0.00 0.00 0.00 0.00 0.00 0.00 0.00 0.00 0.00 0.00 0.00 0.00 0.00 0.00 0.00 0.00 0.00 0.00 0.00 0.00 0.00 0.00 0.00 0.00 0.00 0.00 0.03 0.01 0.00 0.00 0.00 0.00 0.00 0.00 0.00 0.00
0.00 0.00 0.00 0.00 0.00 0.00 0.02 0.02 0.01 0.01 0.00 0.00 0.00 0.00 0.00 0.00 0.00 0.00 0.00 0.00 0.00 0.00 0.00 0.00 0.00 0.00 0.00 0.00 0.00 0.00 0.00 0.00 0.00 0.00 0.00 0.00 0.00 0.00 0.00 0.01 0.03 0.00 0.00 0.00 0.00 0.00 0.00 0.00 0.00
0.00 0.00 0.00 0.00 0.00 0.00 0.00 0.00 0.00 0.04 0.01 0.00 0.00 0.00 0.00 0.00 0.00 0.00 0.00 0.00 0.00 0.00 0.00 0.00 0.00 0.00 0.00 0.00 0.00 0.00 0.00 0.00 0.00 0.00 0.00 0.00 0.00 0.00 0.00 0.03 0.01 0.00 0.01 0.01 0.00 0.00 0.00 0.00 0.00
0.00 0.00 0.00 0.00 0.00 0.00 0.00 0.00 0.00 0.00 0.00 0.00 0.00 0.00 0.00 0.00 0.00 0.00 0.00 0.00 0.00 0.00 0.00 0.00 0.00 0.00 0.00 0.00 0.00 0.00 0.00 0.00 0.00 0.00 0.00 0.00 0.00 0.00 0.00 0.01 0.03 0.00 0.00 0.00 0.02 0.02 0.00 0.00 0.00
0.00 0.00 0.00 0.00 0.00 0.00 0.00 0.00 0.00 0.00 0.00 0.00 0.00 0.00 0.00 0.00 0.00 0.00 0.00 0.00 0.00 0.00 0.00 0.00 0.00 0.00 0.00 0.00 0.00 0.00 0.00 0.00 0.00 0.00 0.00 0.00 0.00 0.00 0.00 0.00 0.04 0.01 0.00 0.00 0.00 0.00 0.00 0.00 0.00
0.00 0.00 0.00 0.00 0.00 0.00 0.00 0.00 0.00 0.00 0.00 0.00 0.00 0.00 0.00 0.00 0.00 0.00 0.00 0.00 0.00 0.00 0.00 0.00 0.00 0.00 0.00 0.00 0.00 0.00 0.00 0.00 0.00 0.00 0.00 0.00 0.00 0.00 0.00 0.00 0.00 0.00 0.00 0.00 0.01 0.00 0.04 0.00 0.00
0.00 0.00 0.00 0.00 0.00 0.00 0.00 0.00 0.00 0.00 0.00 0.00 0.01 0.00 0.00 0.00 0.00 0.00 0.00 0.00 0.00 0.00 0.00 0.00 0.00 0.00 0.00 0.00 0.00 0.00 0.00 0.00 0.00 0.00 0.00 0.00 0.00 0.00 0.00 0.00 0.00 0.00 0.00 0.00 0.00 0.00 0.00 0.01 0.00
0.00 0.00 0.00 0.00 0.00 0.00 0.00 0.00 0.00 0.00 0.00 0.00 0.00 0.00 0.00 0.00 0.00 0.00 0.00 0.00 0.00 0.00 0.00 0.00 0.00 0.00 0.00 0.00 0.00 0.00 0.00 0.00 0.00 0.00 0.00 0.00 0.00 0.00 0.00 0.00 0.00 0.00 0.00 0.00 0.00 0.00 0.01 0.02 0.00
0.00 0.00 0.00 0.00 0.00 0.00 0.00 0.00 0.00 0.00 0.00 0.00 0.00 0.00 0.00 0.02 0.00 0.00 0.00 0.00 0.00 0.00 0.00 0.00 0.00 0.00 0.00 0.00 0.00 0.00 0.00 0.00 0.00 0.00 0.00 0.00 0.00 0.00 0.00 0.00 0.00 0.00 0.00 0.00 0.00 0.00 0.00 0.00 0.00
0.00 0.00 0.00 0.00 0.00 0.00 0.00 0.00 0.00 0.00 0.00 0.00 0.00 0.00 0.00 0.00 0.00 0.00 0.00 0.00 0.00 0.00 0.00 0.00 0.00 0.00 0.00 0.00 0.00 0.00 0.00 0.00 0.00 0.00 0.00 0.00 0.00 0.00 0.00 0.00 0.00 0.00 0.00 0.00 0.00 0.00 0.00 0.00 0.00
0.00 0.00 0.00 0.00 0.00 0.00 0.00 0.00 0.00 0.00 0.00 0.00 0.00 0.00 0.00 0.00 0.00 0.00 0.00 0.00 0.00 0.00 0.00 0.00 0.00 0.00 0.00 0.00 0.00 0.00 0.00 0.00 0.00 0.00 0.00 0.00 0.00 0.00 0.00 0.00 0.00 0.00 0.00 0.00 0.00 0.00 0.00 0.00 0.00
MSLP
1011.33 1010.74 1009.84 1009.19 1009.76 1007.39 1006.42 1005.59 1005.08 1004.80 1004.80 1005.19 1005.16 1005.46 1007.15 1007.71 1007.98 1010.05 1011.85 1012.40 1012.62 1013.12 1014.25 1015.13 1015.67 1015.78 1016.00 1016.18 1016.34 1016.51 1016.66 1016.81 1016.98 1017.17 1017.38 1017.57 1017.74 1017.89 1017.96 1018.06 1018.07 1018.12 1018.14 1018.16 1018.13 1018.23 1018.20 1018.26 1018.35
1009.92 1010.48 1009.83 1009.70 1009.00 1006.62 1005.69 1004.86 1005.06 1004.74 1004.17 1004.95 1005.17 1005.59 1006.17 1007.74 1008.42 1010.16 1011.68 1012.24 1012.14 1012.80 1013.78 1014.80 1015.81 1016.00 1016.20 1016.35 1016.50 1016.70 1016.88 1017.07 1017.27 1017.44 1017.62 1017.77 1017.92 1018.08 1018.15 1018.25 1018.37 1018.24 1018.29 1018.36 1018.30 1018.38 1018.47 1018.60 1018.70
1010.19 1010.38 1009.91 1009.09 1007.45 1006.00 1005.07 1004.86 1004.89 1004.72 1004.46 1005.42 1005.60 1006.11 1007.30 1008.83 1009.53 1009.96 1011.06 1011.48 1011.70 1012.58 1013.50 1015.46 1016.10 1016.27 1016.50 1016.59 1016.75 1017.06 1017.14 1017.33 1017.53 1017.73 1017.91 1018.00 1018.17 1018.32 1018.42 1018.48 1018.54 1018.48 1018.53 1018.58 1018.64 1018.78 1018.87 1018.84 1019.02
1009.32 1009.70 1010.12 1008.86 1007.00 1006.10 1006.25 1005.74 1005.19 1004.92 1005.22 1006.16 1006.02 1007.34 1009.02 1009.12 1009.72 1010.49 1011.08 1011.26 1011.42 1012.33 1013.67 1015.84 1016.16 1016.42 1016.73 1016.95 1017.05 1017.27 1017.47 1017.62 1017.81 1017.94 1018.03 1018.21 1018.37 1018.50 1018.65 1018.63 1018.68 1018.74 1018.81 1018.82 1018.99 1019.04 1019.11 1019.24 1019.30
1008.92 1009.20 1008.68 1007.28 1006.35 1006.30 1006.15 1006.62 1006.60 1005.56 1006.40 1006.20 1006.66 1008.24 1009.36 1010.15 1010.14 1010.63 1011.06 1011.14 1011.24 1012.30 1014.41 1015.63 1016.38 1016.56 1016.89 1017.14 1017.35 1017.48 1017.66 1017.90 1018.03 1018.11 1018.26 1018.38 1018.53 1018.67 1018.68 1018.74 1018.84 1018.95 1019.08 1019.14 1019.21 1019.20 1019.24 1019.19 1019.31
1009.14 1008.22 1007.27 1006.28 1005.42 1006.06 1006.32 1007.26 1007.26 1006.47 1006.80 1006.70 1007.42 1008.75 1010.20 1010.68 1010.60 1010.70 1010.80 1010.98 1011.31 1012.67 1014.12 1015.80 1016.69 1016.79 1017.12 1017.35 1017.58 1017.74 1017.91 1018.09 1018.21 1018.34 1018.44 1018.64 1018.77 1018.81 1018.92 1019.02 1019.10 1019.20 1019.31 1019.37 1019.36 1019.42 1019.38 1019.58 1019.70
1008.26 1007.93 1006.31 1005.46 1005.34 1006.14 1006.81 1007.52 1007.48 1006.96 1006.83 1006.86 1006.62 1008.16 1010.41 1010.74 1010.74 1010.78 1010.74 1011.17 1011.63 1012.63 1014.23 1015.39 1016.27 1016.92 1017.34 1017.66 1017.80 1018.01 1018.12 1018.32 1018.51 1018.56 1018.65 1018.83 1018.93 1019.07 1019.16 1019.22 1019.27 1019.43 1019.48 1019.60 1019.70 1019.63 1019.74 1019.95 1020.09
1007.54 1007.30 1005.49 1005.08 1004.86 1005.13 1005.74 1006.73 1006.83 1006.51 1007.01 1006.11 1006.56 1007.72 1009.82 1010.42 1010.71 1010.74 1010.80 1011.28 1011.83 1012.57 1014.05 1014.74 1015.66 1016.36 1016.73 1017.49 1018.03 1018.25 1018.37 1018.58 1018.74 1018.77 1018.76 1018.95 1019.05 1019.13 1019.23 1019.27 1019.41 1019.55 1019.68 1019.81 1019.86 1019.91 1020.01 1020.20 1020.32
1007.07 1006.38 1004.92 1005.47 1004.98 1004.56 1005.86 1006.34 1007.02 1006.97 1006.68 1006.58 1006.59 1007.00 1008.86 1010.16 1010.60 1010.71 1010.94 1011.41 1011.95 1012.93 1013.70 1014.22 1014.78 1015.84 1016.59 1017.24 1018.21 1018.44 1018.61 1018.80 1018.90 1018.89 1018.84 1018.72 1018.06 1018.54 1018.90 1019.49 1019.64 1019.75 1019.84 1019.91 1019.92 1020.03 1020.01 1020.09 1020.12
1006.34 1004.60 1005.25 1003.74 1004.53 1004.22 1004.70 1005.52 1005.99 1006.49 1005.99 1005.75 1006.52 1007.39 1009.21 1009.84 1010.43 1010.74 1010.69 1011.34 1011.82 1012.68 1013.14 1013.89 1014.51 1015.35 1016.00 1016.35 1017.78 1017.84 1018.15 1018.02 1017.88 1018.26 1018.35 1018.57 1018.17 1018.50 1018.66 1019.38 1019.74 1019.82 1019.87 1019.92 1019.79 1019.95 1020.06 1019.67 1018.95
1004.44 1003.69 1003.20 1003.87 1004.19 1004.72 1004.62 1005.32 1004.80 1004.64 1004.74 1005.18 1006.25 1008.14 1009.51 1009.55 1010.14 1010.32 1010.71 1011.45 1011.86 1012.54 1012.99 1013.83 1014.98 1015.59 1015.50 1016.48 1016.75 1016.98 1017.38 1017.82 1017.78 1018.24 1018.06 1018.12 1018.26 1018.59 1018.47 1018.91 1019.22 1019.11 1019.78 1019.02 1019.37 1019.68 1019.66 1019.56 1018.80
1003.45 1003.02 1003.53 1004.31 1003.80 1004.45 1004.39 1004.37 1003.58 1003.99 1005.09 1004.78 1006.35 1008.54 1009.46 1009.39 1009.57 1009.94 1010.48 1011.36 1012.08 1012.71 1013.28 1013.92 1015.02 1015.66 1015.46 1016.25 1016.53 1016.77 1018.01 1016.90 1017.47 1018.18 1018.39 1018.60 1018.44 1018.45 1018.90 1019.03 1018.54 1018.78 1018.87 1018.56 1019.32 1019.93 1019.20 1019.26 1019.73
1002.81 1002.70 1003.16 1003.42 1003.40 1003.68 1003.80 1003.48 1003.90 1003.60 1003.59 1004.86 1006.65 1008.58 1009.12 1009.49 1009.64 1010.16 1010.46 1011.48 1012.31 1012.90 1013.65 1014.21 1015.30 1015.96 1015.93 1016.39 1016.58 1016.36 1016.42 1016.62 1017.05 1018.41 1018.46 1018.09 1018.80 1018.82 1018.51 1018.26 1019.48 1019.02 1018.71 1018.02 1019.10 1018.69 1018.74 1018.70 1018.64
1001.99 1002.45 1003.28 1003.63 1002.74 1002.60 1002.78 1002.61 1002.47 1002.48 1003.70 1005.26 1006.67 1008.10 1008.66 1009.11 1009.48 1010.10 1010.50 1011.31 1012.34 1013.04 1013.86 1014.61 1015.53 1016.08 1016.31 1016.66 1016.66 1016.71 1016.71 1016.85 1017.13 1017.70 1018.38 1018.45 1018.64 1018.67 1018.96 1018.44 1019.09 1018.66 1018.80 1018.50 1018.74 1018.78 1018.71 1018.47 1018.62
1002.29 1002.18 1002.10 1002.72 1002.82 1002.10 1001.80 1001.85 1001.47 1002.41 1003.42 1005.06 1006.27 1007.42 1008.12 1008.70 1009.27 1009.99 1010.58 1011.35 1012.32 1013.14 1014.00 1014.86 1015.67 1016.14 1016.60 1016.86 1017.06 1017.00 1017.44 1016.83 1017.54 1017.38 1018.63 1018.75 1018.88 1018.76 1019.08 1018.56 1019.25 1019.04 1018.94 1018.74 1018.88 1018.92 1018.51 1018.34 1018.87
1002.14 1001.80 1000.73 1000.84 1002.03 1001.85 1002.07 1000.87 1000.91 1002.30 1003.04 1004.35 1005.70 1006.81 1007.62 1008.35 1008.98 1009.96 1010.67 1011.45 1012.19 1013.02 1014.09 1014.92 1015.31 1016.12 1016.66 1016.76 1017.38 1017.01 1017.21 1016.99 1017.62 1017.47 1018.48 1018.93 1019.02 1019.14 1019.03 1018.41 1018.60 1018.46 1018.66 1019.13 1020.02 1018.95 1018.74 1018.58 1018.91
1001.20 1000.13 1000.09 999.89 1001.34 1001.22 1001.85 1002.15 1002.52 1002.05 1002.74 1003.55 1004.92 1006.19 1007.14 1007.98 1008.82 1009.83 1010.52 1011.37 1011.96 1012.93 1014.08 1014.79 1015.22 1016.00 1016.61 1016.92 1017.21 1016.96 1017.10 1017.21 1017.35 1017.64 1018.18 1018.79 1019.03 1019.34 1018.82 1018.40 1018.84 1019.00 1018.67 1019.03 1018.73 1019.03 1019.01 1018.96 1018.90
999.57 999.58 998.60 998.86 1000.00 1000.48 1000.92 1002.48 1003.04 1001.82 1002.00 1002.83 1004.16 1005.51 1006.55 1007.38 1008.28 1009.45 1010.28 1011.15 1011.84 1012.89 1014.10 1014.81 1015.26 1015.87 1016.64 1017.04 1017.19 1016.78 1017.21 1017.09 1017.42 1017.56 1018.39 1018.77 1019.10 1019.16 1019.10 1019.14 1019.08 1019.09 1018.93 1018.87 1019.23 1019.08 1019.36 1018.98 1019.06
999.08 998.43 998.41 997.79 998.97 999.91 1000.38 1001.52 1001.54 1001.23 1001.55 1002.16 1003.49 1004.86 1005.92 1006.73 1007.83 1009.10 1010.01 1010.83 1011.63 1012.63 1013.77 1014.61 1015.15 1015.74 1016.51 1016.84 1017.01 1016.76 1016.81 1017.02 1017.60 1017.24 1017.80 1018.53 1018.60 1019.13 1019.11 1019.28 1019.39 1019.24 1019.63 1020.01 1019.54 1019.59 1019.46 1019.02 1019.37
1000.10 999.39 998.22 997.94 998.35 999.76 1000.32 1000.29 999.82 1000.31 1000.48 1001.38 1002.74 1004.10 1005.30 1006.30 1007.38 1008.53 1009.56 1010.34 1011.14 1012.25 1013.30 1014.24 1014.93 1015.59 1016.38 1016.61 1016.80 1016.57 1016.43 1016.60 1016.63 1016.83 1017.71 1018.23 1018.46 1018.96 1019.06 1019.65 1019.14 1019.21 1019.21 1019.88 1019.76 1019.54 1020.02 1019.34 1019.56
1000.48 999.87 999.07 998.34 998.50 999.01 999.38 999.71 999.12 999.64 999.46 1000.71 1002.11 1003.40 1004.47 1005.33 1006.32 1007.74 1008.86 1009.58 1010.62 1011.60 1012.75 1013.72 1014.53 1015.24 1016.07 1016.23 1016.66 1016.73 1016.65 1016.48 1016.73 1016.79 1017.46 1017.96 1018.26 1018.60 1018.58 1019.22 1019.48 1019.34 1019.33 1019.72 1020.08 1019.95 1019.55 1019.75 1019.44
1000.30 1000.37 1000.10 999.43 998.70 998.25 999.11 998.84 998.75 999.76 998.44 999.74 1001.28 1002.44 1003.36 1004.42 1005.66 1006.94 1008.11 1008.92 1009.69 1010.77 1012.15 1013.20 1014.18 1014.82 1015.66 1016.12 1016.19 1016.47 1016.33 1016.14 1016.20 1016.41 1016.70 1017.35 1017.99 1018.32 1018.60 1018.98 1019.24 1019.36 1019.44 1019.82 1019.90 1019.92 1019.74 1019.77 1019.29
1000.80 1000.53 1000.18 1000.32 999.70 999.09 998.35 998.08 996.83 997.52 998.60 998.53 1000.01 1001.29 1002.17 1003.28 1004.42 1005.54 1006.80 1007.91 1008.85 1010.04 1011.20 1012.37 1013.62 1014.44 1014.99 1015.73 1015.79 1016.20 1016.29 1016.10 1016.14 1016.05 1016.47 1016.92 1017.78 1018.12 1018.17 1018.72 1019.08 1019.31 1019.35 1019.53 1019.97 1019.94 1019.78 1019.47 1019.61
1001.63 1001.29 1000.94 1000.44 1000.05 998.90 998.15 997.37 996.27 996.71 997.12 997.64 998.63 999.70 1000.96 1001.98 1003.27 1004.46 1005.89 1007.18 1008.21 1009.19 1010.32 1011.43 1012.63 1013.69 1014.53 1015.14 1015.75 1015.83 1016.14 1015.89 1015.69 1015.96 1016.26 1016.99 1017.11 1017.78 1018.06 1018.28 1019.14 1019.17 1019.14 1019.44 1019.48 1019.66 1019.98 1020.03 1019.51
1001.57 1001.06 1000.43 1000.06 999.16 997.39 997.47 996.68 995.16 995.04 996.54 997.02 996.90 998.09 999.34 1000.63 1002.08 1003.38 1004.64 1005.84 1007.05 1008.00 1009.18 1010.32 1011.63 1012.77 1013.68 1014.34 1015.10 1015.51 1015.74 1016.07 1015.82 1015.94 1016.17 1016.23 1016.24 1016.41 1017.31 1017.99 1018.56 1018.71 1019.10 1019.05 1019.34 1019.74 1019.94 1020.03 1019.93
1000.66 1000.61 999.31 998.08 997.00 996.29 996.72 994.75 994.76 994.84 995.47 996.32 997.96 996.55 997.68 999.12 1000.47 1001.98 1003.26 1004.61 1005.82 1006.88 1008.06 1009.21 1010.34 1011.71 1012.74 1013.53 1014.21 1015.04 1015.39 1015.56 1015.86 1015.96 1015.83 1016.13 1015.79 1015.96 1016.50 1017.57 1017.95 1018.42 1018.54 1018.86 1019.13 1019.41 1019.61 1019.48 1019.98
999.96 999.84 999.74 998.46 996.82 995.25 994.40 994.65 994.88 994.72 994.88 995.93 997.42 995.20 996.76 997.22 998.77 1000.44 1001.99 1003.44 1004.68 1005.82 1006.81 1007.88 1009.04 1010.41 1011.50 1012.42 1013.35 1014.06 1014.73 1015.12 1015.09 1015.42 1016.00 1015.91 1016.03 1015.72 1016.18 1016.80 1017.67 1017.86 1018.17 1018.36 1018.64 1018.96 1019.22 1019.38 1019.62
1000.60 999.73 999.65 998.90 997.38 995.19 993.99 992.82 992.66 993.76 994.14 994.60 995.16 995.30 995.91 997.34 997.36 998.86 1000.61 1002.18 1003.46 1004.60 1005.88 1007.31 1008.31 1009.28 1010.36 1011.41 1012.22 1012.96 1013.72 1014.38 1014.74 1015.03 1015.28 1015.66 1015.66 1016.03 1016.00 1016.60 1017.12 1017.58 1017.72 1017.95 1018.39 1018.46 1018.77 1019.00 1019.08
1001.24 1000.24 999.54 998.71 997.96 996.26 994.64 992.40 992.27 992.50 993.71 994.24 994.51 995.28 995.13 995.52 996.36 997.90 999.28 1000.76 1002.29 1003.66 1004.91 1006.00 1007.30 1008.38 1009.51 1010.34 1011.04 1011.71 1012.46 1013.32 1014.13 1014.30 1014.76 1015.17 1015.55 1015.73 1016.23 1016.50 1016.86 1017.18 1017.44 1017.72 1018.07 1018.34 1018.10 1018.66 1018.85
1001.54 1000.34 1000.28 998.95 997.93 996.72 995.63 993.39 992.48 992.36 992.83 993.96 994.28 994.70 995.27 995.52 995.88 997.11 998.11 999.47 1000.92 1002.40 1003.57 1004.60 1005.88 1007.05 1007.94 1008.92 1009.90 1010.70 1011.47 1012.20 1012.86 1013.58 1013.98 1014.58 1015.16 1015.52 1015.79 1016.32 1016.55 1016.85 1017.05 1017.30 1017.65 1018.04 1017.83 1018.08 1018.28
Thickness
5791 5796 5805 5798 5759 5788 5774 5789 5810 5802 5804 5818 5824 5815 5793 5796 5787 5764 5788 5786 5786 5781 5771 5764 5761 5760 5759 5758 5757 5756 5755 5753 5752 5751 5749 5748 5747 5745 5744 5743 5743 5743 5743 5743 5743 5743 5743 5744 5744
5802 5797 5798 5778 5759 5770 5777 5812 5796 5807 5824 5827 5824 5818 5809 5788 5806 5791 5782 5789 5790 5784 5776 5768 5762 5760 5759 5758 5758 5757 5755 5753 5752 5750 5749 5748 5747 5745 5743 5743 5741 5742 5742 5742 5743 5743 5743 5743 5743
5801 5799 5779 5774 5786 5776 5768 5808 5808 5817 5829 5816 5812 5819 5804 5785 5798 5797 5798 5797 5794 5787 5780 5765 5761 5760 5758 5758 5758 5756 5755 5753 5752 5751 5749 5748 5746 5744 5743 5741 5740 5740 5740 5740 5741 5741 5741 5741 5741
5800 5792 5778 5766 5777 5796 5787 5801 5814 5815 5820 5815 5817 5792 5797 5808 5799 5801 5802 5800 5798 5791 5780 5765 5763 5761 5759 5757 5757 5755 5754 5752 5752 5751 5750 5749 5747 5746 5743 5742 5740 5738 5738 5740 5740 5741 5741 5739 5741
5803 5786 5769 5780 5788 5792 5803 5800 5797 5808 5801 5809 5811 5785 5785 5797 5807 5805 5802 5803 5800 5792 5775 5767 5763 5762 5760 5756 5756 5755 5754 5753 5753 5753 5751 5750 5749 5748 5746 5744 5741 5737 5737 5738 5740 5742 5742 5745 5744
5774 5792 5778 5776 5798 5797 5802 5794 5790 5801 5800 5807 5799 5786 5781 5799 5800 5803 5807 5804 5803 5790 5779 5766 5761 5762 5759 5756 5756 5755 5754 5754 5753 5753 5753 5752 5750 5749 5747 5744 5741 5739 5739 5741 5743 5744 5746 5745 5744
5781 5774 5784 5796 5796 5780 5785 5792 5784 5795 5798 5798 5817 5788 5784 5791 5802 5806 5807 5805 5801 5792 5779 5770 5764 5760 5758 5756 5756 5755 5754 5753 5753 5754 5754 5753 5752 5750 5747 5746 5744 5743 5744 5743 5744 5748 5748 5745 5744
5793 5785 5794 5798 5796 5784 5804 5800 5801 5804 5790 5826 5823 5791 5776 5794 5803 5806 5807 5803 5799 5794 5781 5776 5770 5765 5764 5758 5755 5754 5754 5754 5754 5755 5756 5755 5754 5752 5751 5750 5748 5747 5746 5746 5748 5748 5747 5746 5745
5806 5782 5788 5778 5791 5803 5808 5794 5802 5810 5805 5812 5820 5816 5808 5805 5805 5801 5799 5798 5795 5789 5785 5781 5778 5771 5766 5762 5756 5755 5755 5755 5755 5757 5758 5759 5763 5759 5756 5752 5750 5749 5749 5749 5751 5750 5751 5751 5751
5789 5799 5775 5821 5812 5814 5819 5809 5803 5800 5808 5814 5814 5819 5808 5806 5800 5794 5795 5790 5792 5787 5789 5787 5783 5777 5773 5771 5761 5762 5760 5761 5764 5763 5764 5763 5765 5763 5761 5756 5753 5753 5752 5752 5755 5754 5753 5757 5761
5809 5802 5822 5817 5819 5814 5811 5797 5819 5816 5811 5819 5810 5802 5799 5804 5800 5799 5798 5793 5792 5792 5792 5789 5781 5778 5779 5773 5771 5771 5770 5767 5767 5766 5768 5766 5766 5764 5766 5763 5760 5762 5757 5763 5761 5760 5759 5760 5767
5802 5822 5817 5810 5823 5813 5809 5821 5824 5827 5808 5835 5823 5806 5800 5801 5803 5803 5799 5795 5793 5790 5790 5790 5782 5779 5782 5777 5776 5775 5768 5776 5771 5768 5766 5764 5768 5768 5765 5767 5770 5768 5769 5770 5766 5765 5766 5766 5765
5809 5818 5822 5824 5824 5821 5822 5820 5788 5822 5837 5837 5823 5806 5801 5801 5803 5804 5804 5799 5794 5788 5788 5788 5782 5779 5780 5778 5779 5780 5780 5779 5777 5767 5767 5770 5766 5767 5769 5772 5766 5769 5772 5777 5771 5772 5772 5772 5773
5826 5822 5813 5814 5828 5833 5821 5826 5834 5838 5839 5824 5816 5805 5806 5804 5805 5803 5802 5797 5792 5790 5787 5786 5782 5779 5778 5778 5779 5779 5780 5779 5777 5774 5769 5769 5768 5769 5769 5772 5770 5773 5774 5777 5775 5774 5774 5776 5774
5822 5807 5820 5815 5820 5826 5839 5821 5830 5838 5837 5818 5813 5809 5809 5808 5809 5802 5802 5798 5794 5791 5788 5783 5781 5779 5777 5777 5776 5779 5777 5781 5777 5778 5769 5768 5767 5769 5769 5772 5769 5772 5772 5775 5775 5775 5778 5779 5774
5805 5811 5802 5828 5820 5829 5827 5811 5841 5842 5832 5818 5814 5810 5810 5809 5808 5806 5804 5800 5798 5793 5786 5784 5786 5781 5778 5779 5775 5780 5780 5781 5778 5778 5770 5767 5767 5767 5769 5774 5775 5776 5775 5774 5770 5777 5778 5780 5777
5803 5795 5803 5815 5824 5827 5819 5797 5814 5842 5831 5821 5816 5812 5809 5808 5809 5807 5807 5803 5800 5795 5788 5785 5787 5783 5780 5778 5778 5781 5781 5781 5780 5778 5775 5770 5769 5767 5771 5775 5774 5773 5777 5776 5779 5778 5778 5777 5778
5796 5798 5821 5815 5825 5828 5821 5806 5774 5835 5835 5825 5819 5815 5811 5810 5809 5809 5808 5806 5802 5796 5790 5787 5787 5786 5781 5779 5778 5783 5781 5784 5782 5781 5775 5771 5770 5769 5769 5771 5771 5773 5776 5780 5777 5779 5778 5780 5778
5814 5819 5813 5840 5835 5822 5819 5811 5764 5835 5836 5827 5820 5816 5814 5813 5815 5810 5808 5807 5803 5798 5791 5789 5788 5788 5783 5780 5777 5782 5782 5785 5783 5785 5780 5775 5775 5772 5771 5772 5771 5774 5773 5770 5778 5778 5778 5781 5780
5794 5795 5810 5834 5838 5820 5810 5815 5840 5840 5838 5833 5825 5820 5815 5813 5813 5810 5807 5808 5806 5799 5795 5791 5790 5789 5785 5784 5783 5787 5790 5790 5791 5790 5783 5780 5778 5775 5774 5772 5776 5776 5779 5776 5778 5781 5773 5780 5781
5782 5786 5799 5809 5825 5829 5820 5803 5828 5834 5848 5840 5834 5830 5825 5821 5817 5812 5808 5810 5808 5803 5798 5795 5793 5792 5788 5789 5787 5787 5790 5792 5789 5791 5788 5784 5782 5779 5781 5777 5777 5778 5779 5778 5777 5778 5780 5772 5782
5768 5794 5794 5797 5802 5790 5821 5778 5812 5791 5830 5838 5832 5830 5830 5828 5826 5819 5812 5810 5812 5808 5803 5800 5796 5794 5791 5791 5790 5787 5787 5787 5793 5795 5796 5792 5786 5783 5782 5781 5781 5781 5782 5781 5779 5780 5781 5780 5780
5767 5791 5789 5783 5783 5789 5801 5796 5830 5841 5813 5836 5837 5835 5838 5837 5834 5828 5822 5819 5817 5813 5809 5804 5799 5796 5796 5793 5794 5790 5788 5795 5799 5802 5798 5797 5790 5788 5789 5786 5785 5784 5785 5784 5780 5781 5783 5787 5782
5773 5768 5770 5777 5774 5752 5790 5799 5813 5815 5833 5838 5847 5846 5844 5843 5840 5836 5831 5825 5819 5819 5814 5810 5804 5799 5798 5796 5794 5794 5791 5796 5799 5800 5799 5796 5798 5794 5792 5791 5786 5787 5788 5787 5786 5784 5783 5783 5788
5755 5750 5731 5729 5737 5753 5802 5794 5823 5853 5845 5846 5855 5855 5853 5851 5844 5838 5833 5828 5824 5822 5819 5817 5810 5803 5803 5801 5798 5797 5797 5796 5798 5800 5800 5801 5805 5806 5801 5795 5791 5791 5789 5789 5787 5786 5784 5785 5784
5744 5748 5739 5722 5750 5773 5799 5783 5809 5857 5860 5850 5832 5859 5865 5856 5853 5846 5843 5836 5831 5828 5825 5821 5818 5809 5808 5805 5803 5799 5799 5800 5799 5801 5804 5804 5810 5811 5807 5799 5796 5794 5795 5792 5789 5789 5789 5791 5786
5742 5729 5769 5759 5789 5789 5807 5810 5828 5847 5850 5841 5835 5870 5853 5863 5859 5854 5849 5844 5838 5832 5830 5827 5823 5816 5813 5811 5807 5804 5802 5802 5804 5805 5803 5806 5808 5813 5809 5804 5799 5798 5798 5797 5795 5795 5793 5792 5790
5728 5761 5729 5741 5721 5737 5790 5808 5806 5818 5830 5845 5846 5854 5859 5844 5862 5862 5856 5849 5846 5841 5835 5829 5826 5822 5818 5814 5813 5810 5808 5806 5806 5806 5806 5806 5810 5809 5811 5807 5804 5802 5801 5801 5799 5800 5800 5797 5796
5707 5715 5727 5747 5749 5736 5752 5796 5845 5836 5829 5833 5846 5851 5866 5861 5861 5863 5862 5859 5851 5845 5838 5833 5828 5823 5819 5819 5819 5817 5815 5813 5809 5810 5809 5809 5809 5811 5808 5807 5806 5804 5804 5803 5802 5801 5805 5800 5798
5707 5714 5717 5715 5723 5752 5762 5787 5852 5849 5843 5835 5842 5849 5857 5865 5869 5867 5868 5863 5856 5848 5844 5840 5835 5828 5827 5826 5823 5822 5820 5818 5816 5813 5814 5812 5810 5810 5810 5807 5807 5806 5806 5806 5804 5800 5805 5804 5802